Time,TemperatureF,DewpointF,PressureIn,WindDirection,WindDirectionDegrees,WindSpeedMPH,WindSpeedGustMPH,Humidity,HourlyPrecipIn,Conditions,Clouds,dailyrainin,SoftwareType,DateUTC
2013-03-11 00:03:00,33.0,31.0,29.69,NNW,341,3.0,7.0,93,0.01,,,1.09,,2013-03-11 05:03:00,
2013-03-11 00:12:00,33.0,31.0,29.69,NNW,341,3.0,7.0,93,0.01,,,1.09,,2013-03-11 05:12:00,
2013-03-11 00:22:00,33.0,31.0,29.69,NNW,339,2.0,6.0,93,0.00,,,1.09,,2013-03-11 05:22:00,
2013-03-11 00:32:00,33.0,31.0,29.69,NNW,336,3.0,7.0,93,0.01,,,1.10,,2013-03-11 05:32:00,
2013-03-11 00:42:00,33.0,31.0,29.69,NNW,336,3.0,7.0,93,0.01,,,1.10,,2013-03-11 05:42:00,
2013-03-11 00:52:00,33.0,31.0,29.69,NNW,338,3.0,9.0,93,0.01,,,1.10,,2013-03-11 05:52:00,
2013-03-11 01:02:00,33.0,31.0,29.69,NNW,331,2.0,8.0,93,0.01,,,1.10,,2013-03-11 06:02:00,
2013-03-11 01:12:00,33.0,31.0,29.69,NNW,331,2.0,8.0,93,0.01,,,1.10,,2013-03-11 06:12:00,
2013-03-11 01:22:00,33.0,31.0,29.69,NW,322,2.0,7.0,93,0.01,,,1.06,,2013-03-11 06:22:00,
2013-03-11 01:32:00,33.0,31.0,29.69,NNW,345,2.0,10.0,93,0.00,,,1.03,,2013-03-11 06:32:00,
2013-03-11 01:42:00,33.0,31.0,29.69,NNW,345,2.0,10.0,93,0.00,,,1.03,,2013-03-11 06:42:00,
2013-03-11 01:53:00,33.0,31.0,29.69,NW,317,4.0,10.0,93,0.00,,,1.01,,2013-03-11 06:53:00,
2013-03-11 02:02:00,33.0,31.0,29.69,WNW,302,4.0,8.0,93,0.00,,,1.01,,2013-03-11 07:02:00,
2013-03-11 02:12:00,32.0,30.0,29.69,NW,314,3.0,10.0,93,0.00,,,0.97,,2013-03-11 07:12:00,
2013-03-11 02:22:00,32.0,30.0,29.69,NW,314,3.0,10.0,93,0.00,,,0.97,,2013-03-11 07:22:00,
2013-03-11 02:32:00,32.0,30.0,29.68,NW,307,2.0,7.0,93,0.00,,,0.89,,2013-03-11 07:32:00,
2013-03-11 02:42:00,32.0,30.0,29.68,NW,307,2.0,7.0,93,0.00,,,0.89,,2013-03-11 07:42:00,
2013-03-11 02:52:00,32.0,30.0,29.68,NW,314,4.0,9.0,93,0.00,,,0.83,,2013-03-11 07:52:00,
2013-03-11 03:02:00,32.0,30.0,29.68,WNW,303,4.0,8.0,93,0.00,,,0.75,,2013-03-11 08:02:00,
2013-03-11 03:12:00,32.0,30.0,29.68,WNW,303,4.0,8.0,93,0.00,,,0.75,,2013-03-11 08:12:00,
2013-03-11 03:22:00,32.0,30.0,29.68,NW,311,3.0,8.0,93,0.00,,,0.72,,2013-03-11 08:22:00,
2013-03-11 03:32:00,32.0,30.0,29.68,NW,322,3.0,6.0,93,0.00,,,0.60,,2013-03-11 08:32:00,
2013-03-11 03:42:00,32.0,30.0,29.68,NW,322,3.0,6.0,93,0.00,,,0.60,,2013-03-11 08:42:00,
2013-03-11 03:52:00,32.0,30.0,29.68,NW,316,4.0,11.0,93,0.00,,,0.60,,2013-03-11 08:52:00,
2013-03-11 04:02:00,32.0,30.0,29.67,NNW,334,3.0,9.0,93,0.00,,,0.60,,2013-03-11 09:02:00,
2013-03-11 04:12:00,32.0,30.0,29.67,NNW,334,3.0,9.0,93,0.00,,,0.60,,2013-03-11 09:12:00,
2013-03-11 04:22:00,32.0,30.0,29.67,NNW,338,3.0,12.0,93,0.00,,,0.60,,2013-03-11 09:22:00,
2013-03-11 04:32:00,32.0,30.0,29.67,NNW,333,4.0,9.0,93,0.00,,,0.60,,2013-03-11 09:32:00,
2013-03-11 04:42:00,32.0,30.0,29.67,NNW,333,4.0,9.0,93,0.00,,,0.60,,2013-03-11 09:42:00,
2013-03-11 04:52:00,32.0,30.0,29.66,North,351,5.0,10.0,93,0.00,,,0.60,,2013-03-11 09:52:00,
2013-03-11 05:02:00,31.0,29.0,29.66,North,349,4.0,9.0,93,0.00,,,0.60,,2013-03-11 10:02:00,
2013-03-11 05:12:00,31.0,29.0,29.66,North,349,4.0,9.0,93,0.00,,,0.60,,2013-03-11 10:12:00,
2013-03-11 05:22:00,31.0,29.0,29.67,NNW,335,4.0,10.0,93,0.00,,,0.60,,2013-03-11 10:22:00,
2013-03-11 05:32:00,31.0,29.0,29.67,NNW,343,3.0,12.0,93,0.00,,,0.60,,2013-03-11 10:32:00,
2013-03-11 05:42:00,31.0,29.0,29.67,NNW,343,3.0,12.0,93,0.00,,,0.60,,2013-03-11 10:42:00,
2013-03-11 05:52:00,31.0,29.0,29.68,NNW,342,2.0,9.0,93,0.00,,,0.60,,2013-03-11 10:52:00,
2013-03-11 06:02:00,31.0,29.0,29.68,NNW,344,3.0,9.0,93,0.00,,,0.60,,2013-03-11 11:02:00,
2013-03-11 06:12:00,31.0,29.0,29.68,NNW,344,3.0,9.0,93,0.00,,,0.60,,2013-03-11 11:12:00,
2013-03-11 06:22:00,31.0,29.0,29.68,NNW,344,3.0,9.0,93,0.00,,,0.60,,2013-03-11 11:22:00,
2013-03-11 06:32:00,31.0,29.0,29.69,NW,316,3.0,8.0,93,0.00,,,0.60,,2013-03-11 11:32:00,
2013-03-11 06:42:00,31.0,29.0,29.69,NW,316,3.0,8.0,93,0.00,,,0.60,,2013-03-11 11:42:00,
2013-03-11 06:52:00,31.0,29.0,29.70,NW,308,4.0,9.0,93,0.00,,,0.58,,2013-03-11 11:52:00,
2013-03-11 07:02:00,30.0,28.0,29.70,NNW,330,2.0,9.0,93,0.00,,,0.53,,2013-03-11 12:02:00,
2013-03-11 07:12:00,30.0,28.0,29.70,NNW,330,2.0,9.0,93,0.00,,,0.53,,2013-03-11 12:12:00,
2013-03-11 07:22:00,30.0,28.0,29.71,NW,308,4.0,10.0,93,0.00,,,0.50,,2013-03-11 12:22:00,
2013-03-11 07:32:00,30.0,28.0,29.72,NW,319,5.0,12.0,93,0.00,,,0.50,,2013-03-11 12:32:00,
2013-03-11 07:42:00,30.0,28.0,29.72,NW,319,5.0,12.0,93,0.00,,,0.50,,2013-03-11 12:42:00,
2013-03-11 07:53:00,30.0,28.0,29.72,NW,309,5.0,12.0,92,0.00,,,0.50,,2013-03-11 12:53:00,
2013-03-11 08:02:00,30.0,28.0,29.72,NNW,329,4.0,13.0,92,0.00,,,0.50,,2013-03-11 13:02:00,
2013-03-11 08:12:00,30.0,28.0,29.72,NNW,329,4.0,13.0,92,0.00,,,0.50,,2013-03-11 13:12:00,
2013-03-11 08:22:00,29.0,27.0,29.73,NW,315,5.0,11.0,92,0.00,,,0.50,,2013-03-11 13:22:00,
2013-03-11 08:32:00,29.0,27.0,29.73,WNW,302,6.0,11.0,92,0.00,,,0.50,,2013-03-11 13:32:00,
2013-03-11 08:42:00,29.0,27.0,29.73,WNW,302,6.0,11.0,92,0.00,,,0.50,,2013-03-11 13:42:00,
2013-03-11 08:52:00,29.0,27.0,29.74,NW,308,6.0,13.0,91,0.00,,,0.50,,2013-03-11 13:52:00,
2013-03-11 09:02:00,29.0,27.0,29.74,WNW,299,8.0,13.0,91,0.00,,,0.50,,2013-03-11 14:02:00,
2013-03-11 09:12:00,29.0,27.0,29.74,WNW,299,8.0,13.0,91,0.00,,,0.50,,2013-03-11 14:12:00,
2013-03-11 09:22:00,29.0,27.0,29.74,NW,307,6.0,12.0,91,0.00,,,0.50,,2013-03-11 14:22:00,
2013-03-11 09:32:00,29.0,26.0,29.74,NW,310,6.0,15.0,90,0.00,,,0.50,,2013-03-11 14:32:00,
2013-03-11 09:42:00,29.0,26.0,29.74,NW,310,6.0,15.0,90,0.00,,,0.50,,2013-03-11 14:42:00,
2013-03-11 09:52:00,29.0,26.0,29.75,NW,316,5.0,13.0,89,0.00,,,0.48,,2013-03-11 14:52:00,
2013-03-11 10:02:00,29.0,26.0,29.75,WNW,302,7.0,17.0,89,0.00,,,0.44,,2013-03-11 15:02:00,
2013-03-11 10:12:00,29.0,26.0,29.75,WNW,302,7.0,17.0,89,0.00,,,0.44,,2013-03-11 15:12:00,
2013-03-11 10:22:00,28.0,25.0,29.75,NW,314,7.0,14.0,89,0.00,,,0.42,,2013-03-11 15:22:00,
2013-03-11 10:32:00,28.0,25.0,29.75,NW,307,9.0,15.0,89,0.00,,,0.41,,2013-03-11 15:32:00,
2013-03-11 10:42:00,28.0,25.0,29.75,NW,307,9.0,15.0,89,0.00,,,0.41,,2013-03-11 15:42:00,
2013-03-11 10:52:00,28.0,25.0,29.75,WNW,301,8.0,14.0,88,0.00,,,0.41,,2013-03-11 15:52:00,
2013-03-11 11:02:00,28.0,25.0,29.75,NW,309,7.0,14.0,87,0.00,,,0.41,,2013-03-11 16:02:00,
2013-03-11 11:12:00,28.0,25.0,29.75,NW,309,7.0,14.0,87,0.00,,,0.41,,2013-03-11 16:12:00,
2013-03-11 11:22:00,29.0,26.0,29.76,NW,308,8.0,16.0,87,0.00,,,0.41,,2013-03-11 16:22:00,
2013-03-11 11:32:00,29.0,25.0,29.75,NW,321,7.0,17.0,86,0.00,,,0.41,,2013-03-11 16:32:00,
2013-03-11 11:42:00,29.0,25.0,29.75,NW,321,7.0,17.0,86,0.00,,,0.41,,2013-03-11 16:42:00,
2013-03-11 11:52:00,29.0,25.0,29.76,NW,304,9.0,16.0,86,0.00,,,0.41,,2013-03-11 16:52:00,
2013-03-11 12:02:00,29.0,25.0,29.76,NW,305,9.0,17.0,86,0.00,,,0.40,,2013-03-11 17:02:00,
2013-03-11 12:14:00,29.0,25.0,29.76,NW,305,9.0,17.0,86,0.00,,,0.40,,2013-03-11 17:14:00,
2013-03-11 12:24:00,29.0,25.0,29.76,WNW,300,11.0,17.0,86,0.00,,,0.40,,2013-03-11 17:24:00,
2013-03-11 12:34:00,29.0,25.0,29.77,WNW,300,8.0,16.0,86,0.00,,,0.40,,2013-03-11 17:34:00,
2013-03-11 12:42:00,29.0,25.0,29.77,WNW,300,8.0,16.0,86,0.00,,,0.40,,2013-03-11 17:42:00,
2013-03-11 12:52:00,29.0,25.0,29.77,NW,320,6.0,14.0,85,0.00,,,0.40,,2013-03-11 17:52:00,
2013-03-11 13:02:00,29.0,25.0,29.78,WNW,295,10.0,17.0,86,0.00,,,0.40,,2013-03-11 18:02:00,
2013-03-11 13:12:00,29.0,25.0,29.78,WNW,295,10.0,17.0,86,0.00,,,0.40,,2013-03-11 18:12:00,
2013-03-11 13:22:00,29.0,25.0,29.78,WNW,299,11.0,21.0,85,0.00,,,0.40,,2013-03-11 18:22:00,
2013-03-11 13:32:00,29.0,25.0,29.78,NW,304,9.0,22.0,85,0.00,,,0.38,,2013-03-11 18:32:00,
2013-03-11 13:42:00,29.0,25.0,29.78,NW,304,9.0,22.0,85,0.00,,,0.38,,2013-03-11 18:42:00,
2013-03-11 13:52:00,29.0,25.0,29.78,WNW,297,13.0,20.0,84,0.00,,,0.36,,2013-03-11 18:52:00,
2013-03-11 14:02:00,29.0,25.0,29.78,WNW,303,8.0,17.0,85,0.00,,,0.35,,2013-03-11 19:02:00,
2013-03-11 14:12:00,29.0,25.0,29.78,WNW,303,8.0,17.0,85,0.00,,,0.35,,2013-03-11 19:12:00,
2013-03-11 14:22:00,29.0,25.0,29.78,WNW,300,9.0,17.0,85,0.00,,,0.34,,2013-03-11 19:22:00,
2013-03-11 14:32:00,29.0,25.0,29.78,WNW,297,10.0,17.0,84,0.00,,,0.34,,2013-03-11 19:32:00,
2013-03-11 14:42:00,29.0,25.0,29.78,WNW,297,10.0,17.0,84,0.00,,,0.34,,2013-03-11 19:42:00,
2013-03-11 14:52:00,29.0,25.0,29.78,WNW,300,10.0,19.0,84,0.00,,,0.34,,2013-03-11 19:52:00,
2013-03-11 15:02:00,29.0,25.0,29.78,WNW,300,10.0,19.0,84,0.00,,,0.34,,2013-03-11 20:02:00,
2013-03-11 15:12:00,29.0,25.0,29.78,WNW,300,10.0,19.0,84,0.00,,,0.34,,2013-03-11 20:12:00,
2013-03-11 15:22:00,29.0,25.0,29.78,WNW,296,11.0,19.0,84,0.00,,,0.27,,2013-03-11 20:22:00,
2013-03-11 15:32:00,29.0,25.0,29.79,WNW,297,12.0,20.0,83,0.00,,,0.25,,2013-03-11 20:32:00,
2013-03-11 15:44:00,29.0,25.0,29.79,WNW,297,12.0,20.0,83,0.00,,,0.25,,2013-03-11 20:44:00,
2013-03-11 15:53:00,29.0,25.0,29.79,WNW,294,8.0,16.0,83,0.00,,,0.23,,2013-03-11 20:53:00,
2013-03-11 16:02:00,29.0,24.0,29.80,WNW,298,11.0,18.0,81,0.00,,,0.21,,2013-03-11 21:02:00,
2013-03-11 16:12:00,29.0,24.0,29.80,WNW,298,11.0,18.0,81,0.00,,,0.21,,2013-03-11 21:12:00,
2013-03-11 16:22:00,29.0,24.0,29.80,WNW,296,12.0,19.0,81,0.00,,,0.18,,2013-03-11 21:22:00,
2013-03-11 16:32:00,29.0,24.0,29.81,WNW,300,11.0,18.0,81,0.00,,,0.17,,2013-03-11 21:32:00,
2013-03-11 16:43:00,29.0,24.0,29.81,WNW,300,11.0,18.0,81,0.00,,,0.17,,2013-03-11 21:43:00,
2013-03-11 16:53:00,28.0,23.0,29.81,NW,304,10.0,19.0,80,0.00,,,0.14,,2013-03-11 21:53:00,
2013-03-11 17:02:00,28.0,23.0,29.81,NW,314,9.0,15.0,81,0.00,,,0.12,,2013-03-11 22:02:00,
2013-03-11 17:12:00,28.0,23.0,29.81,NW,314,9.0,15.0,81,0.00,,,0.12,,2013-03-11 22:12:00,
2013-03-11 17:22:00,28.0,23.0,29.82,NW,309,7.0,16.0,81,0.00,,,0.10,,2013-03-11 22:22:00,
2013-03-11 17:32:00,28.0,23.0,29.82,NW,304,7.0,17.0,81,0.00,,,0.08,,2013-03-11 22:32:00,
2013-03-11 17:43:00,28.0,23.0,29.82,NW,304,7.0,17.0,81,0.00,,,0.08,,2013-03-11 22:43:00,
2013-03-11 17:53:00,28.0,23.0,29.83,WNW,299,6.0,14.0,82,0.00,,,0.08,,2013-03-11 22:53:00,
2013-03-11 18:02:00,28.0,23.0,29.83,WNW,296,10.0,18.0,80,0.00,,,0.07,,2013-03-11 23:02:00,
2013-03-11 18:12:00,28.0,23.0,29.83,WNW,296,10.0,18.0,80,0.00,,,0.07,,2013-03-11 23:12:00,
2013-03-11 18:22:00,28.0,22.0,29.84,WNW,299,10.0,16.0,78,0.00,,,0.06,,2013-03-11 23:22:00,
2013-03-11 18:32:00,28.0,23.0,29.85,WNW,295,10.0,16.0,80,0.00,,,0.05,,2013-03-11 23:32:00,
2013-03-11 18:43:00,28.0,23.0,29.85,WNW,295,10.0,16.0,80,0.00,,,0.05,,2013-03-11 23:43:00,
2013-03-11 18:53:00,28.0,23.0,29.85,WNW,299,8.0,16.0,80,0.00,,,0.04,,2013-03-11 23:53:00,
2013-03-11 19:02:00,28.0,22.0,29.85,WNW,298,6.0,14.0,79,0.00,,,0.03,,2013-03-12 00:02:00,
2013-03-11 19:12:00,28.0,22.0,29.85,WNW,298,6.0,14.0,79,0.00,,,0.03,,2013-03-12 00:12:00,
2013-03-11 19:22:00,28.0,22.0,29.85,WNW,300,8.0,13.0,79,0.00,,,0.03,,2013-03-12 00:22:00,
2013-03-11 19:33:00,28.0,23.0,29.86,WNW,285,9.0,14.0,80,0.00,,,0.03,,2013-03-12 00:33:00,
2013-03-11 19:42:00,28.0,23.0,29.86,WNW,285,9.0,14.0,80,0.00,,,0.03,,2013-03-12 00:42:00,
2013-03-11 19:53:00,27.0,21.0,29.87,WNW,293,8.0,17.0,78,0.00,,,0.03,,2013-03-12 00:53:00,
2013-03-11 20:02:00,27.0,21.0,29.87,WNW,288,8.0,17.0,78,0.00,,,0.03,,2013-03-12 01:02:00,
2013-03-11 20:12:00,27.0,21.0,29.87,WNW,288,8.0,17.0,78,0.00,,,0.03,,2013-03-12 01:12:00,
2013-03-11 20:22:00,27.0,20.0,29.88,WNW,288,10.0,14.0,76,0.00,,,0.03,,2013-03-12 01:22:00,
2013-03-11 20:32:00,27.0,21.0,29.89,WNW,293,9.0,15.0,77,0.00,,,0.03,,2013-03-12 01:32:00,
2013-03-11 20:42:00,27.0,21.0,29.89,WNW,293,9.0,15.0,77,0.00,,,0.03,,2013-03-12 01:42:00,
2013-03-11 20:52:00,27.0,21.0,29.90,WNW,296,9.0,15.0,77,0.00,,,0.03,,2013-03-12 01:52:00,
2013-03-11 21:02:00,27.0,21.0,29.91,WNW,293,6.0,12.0,78,0.00,,,0.03,,2013-03-12 02:02:00,
2013-03-11 21:12:00,27.0,21.0,29.91,WNW,293,6.0,12.0,78,0.00,,,0.03,,2013-03-12 02:12:00,
2013-03-11 21:22:00,26.0,21.0,29.91,WNW,287,6.0,11.0,80,0.00,,,0.03,,2013-03-12 02:22:00,
2013-03-11 21:32:00,26.0,21.0,29.92,West,274,6.0,12.0,80,0.00,,,0.02,,2013-03-12 02:32:00,
2013-03-11 21:42:00,26.0,21.0,29.92,West,274,6.0,12.0,80,0.00,,,0.02,,2013-03-12 02:42:00,
2013-03-11 21:52:00,26.0,20.0,29.91,WNW,286,5.0,14.0,79,0.00,,,0.02,,2013-03-12 02:52:00,
2013-03-11 22:02:00,26.0,20.0,29.91,West,279,6.0,10.0,79,0.00,,,0.02,,2013-03-12 03:02:00,
2013-03-11 22:12:00,26.0,20.0,29.91,West,279,6.0,10.0,79,0.00,,,0.02,,2013-03-12 03:12:00,
2013-03-11 22:22:00,26.0,21.0,29.91,WNW,287,5.0,9.0,80,0.00,,,0.02,,2013-03-12 03:22:00,
2013-03-11 22:32:00,26.0,21.0,29.92,West,268,6.0,10.0,80,0.00,,,0.02,,2013-03-12 03:32:00,
2013-03-11 22:42:00,26.0,21.0,29.92,West,268,6.0,10.0,80,0.00,,,0.02,,2013-03-12 03:42:00,
2013-03-11 22:53:00,25.0,20.0,29.92,West,281,6.0,11.0,81,0.00,,,0.02,,2013-03-12 03:53:00,
2013-03-11 23:02:00,25.0,20.0,29.92,West,269,4.0,9.0,81,0.00,,,0.02,,2013-03-12 04:02:00,
2013-03-11 23:12:00,25.0,20.0,29.92,West,269,4.0,9.0,81,0.00,,,0.02,,2013-03-12 04:12:00,
2013-03-11 23:22:00,25.0,20.0,29.92,WNW,288,4.0,9.0,82,0.00,,,0.01,,2013-03-12 04:22:00,
2013-03-11 23:32:00,25.0,20.0,29.93,West,273,4.0,7.0,82,0.00,,,0.01,,2013-03-12 04:32:00,
2013-03-11 23:42:00,25.0,20.0,29.93,West,273,4.0,7.0,82,0.00,,,0.01,,2013-03-12 04:42:00,
2013-03-11 23:52:00,26.0,21.0,29.93,WNW,283,5.0,9.0,82,0.00,,,0.01,,2013-03-12 04:52:00,